sat.trackr.live / text

‹ back to catalog

STARLINK-2103

NORAD 47383 · 2021-005AL

PAYLOAD ACTIVE UNKNOWN

§ Identity

Operator
Country
US
Launch date
2021-01-20
Launch site
AFETR
Launch vehicle
Mass (kg)
RCS (m²)

Purposes: comms

External: N2YO · Heavens-Above · Gunter

§ Orbital elements

Epoch: 2026-09-20T03:58:49.872000Z

Period
93.31 min
Inclination
53.1554°
Eccentricity
0.0001567
Mean motion
15.43177812 rev/d
Perigee alt
435.7 km
Apogee alt
437.8 km
Semi-major
6,814.9 km
B*
9.4879e-4
RAAN
183.7517°
Arg perigee
70.2024°
Mean anomaly
289.9152°
Rev number
31,359

§ Raw data

STARLINK-21031 47383U 21005AL  26263.16585500  .00042544  00000+0  94879-3 0  99902 47383  53.1554 183.7517 0001567  70.2024 289.9152 15.43177812313592

JSON: /api/v1/satellites/47383 · /tle

For live sub-satellite position, see the globe view (requires WebGL).

§ Visibility from observer

Set your observer location to see the next 7 days of passes ≥ 10°. The values pass through the URL so the page stays shareable.

No JS? Fill the form by hand. The geolocation button needs JavaScript.